Flag for Germany Weather past 2 weeks in Friedrichshafen, Baden-Württemberg, Germany

Now
43 °F

Partly sunny.


Feels Like: 35 °F
Forecast: 36 / 47 °F
Wind: 16 mph from West

Location: Friedrichshafen Airport

Current Time: Dec 20, 2014 at 2:23:57 PM

Latest Report: Dec 20, 2014 at 1:50 PM


Visibility: N/A

Pressure: 30.27 "Hg

Humidity: 66%

Dew point: 32 °F

Location of FriedrichshafenLocation

Historic Weather in Friedrichshafen — Graph

°F

Friedrichshafen temperature yesterday

Maximum temperature yesterday: 54 °F (at 11:50 AM)
Minimum temperature yesterday: 45 °F (at 6:20 AM)
Average temperature yesterday: 50 °F

Past Weeks' High & Low Weather Summary

 TemperatureHumidityPressure
High54 °F (Dec 13, 1:50 PM)100% (Dec 6, 6:20 PM)30.42 "Hg (Dec 6, 6:20 PM)
Low25 °F (Dec 10, 1:50 AM)40% (Dec 12, 7:50 PM)29.83 "Hg (Dec 12, 7:50 PM)
Average41 °F81%30.09 "Hg
* Reported Dec 5 12:20 PM — Dec 20 12:50 PM, Friedrichshafen, Weather by CustomWeather, © 2014

Note: Actual official high and low records may vary slightly from our data, if they occured in-between our weather recording intervals... More about our weather records

Advertising

Friedrichshafen weather history for previous 24 hours

 ConditionsComfort  
Time TempWeatherWind HumidityBarometerVisibility
12:50 PM
Dec 20
43 °FScattered clouds.18 mph66%30.30 "HgN/A
12:20 PM43 °FBroken clouds.13 mph66%30.33 "HgN/A
11:50 AM43 °FScattered clouds.16 mph71%30.33 "HgN/A
11:20 AM43 °FPassing clouds.13 mph71%30.33 "HgN/A
10:50 AM43 °FPassing clouds.14 mph71%30.33 "HgN/A
10:20 AM43 °FScattered clouds.13 mph76%30.33 "HgN/A
9:50 AM45 °FScattered clouds.13 mph71%30.33 "HgN/A
9:20 AM45 °FScattered clouds.12 mph76%30.33 "HgN/A
8:50 AM45 °FPassing clouds.12 mph76%30.30 "HgN/A
8:20 AM45 °FPassing clouds.14 mph76%30.30 "HgN/A
7:50 AM45 °FQuite cool.13 mph81%30.30 "HgN/A
7:20 AM45 °FPassing clouds.10 mph81%30.30 "HgN/A
6:50 AM46 °FPassing clouds.12 mph82%30.27 "HgN/A
6:20 AM46 °FPassing clouds.9 mph87%30.27 "HgN/A
5:50 AM48 °FOvercast.8 mph82%30.27 "HgN/A
5:20 AM48 °FOvercast.7 mph82%30.27 "HgN/A
4:50 AM48 °FPassing clouds.6 mph82%30.27 "HgN/A
4:20 AM48 °FMostly cloudy.8 mph82%30.27 "HgN/A
3:50 AM46 °FMostly cloudy.5 mph87%30.27 "HgN/A
3:20 AM45 °FLow clouds.2 mph93%30.27 "HgN/A
2:50 AM46 °FPassing clouds.5 mph87%30.24 "HgN/A
2:20 AM46 °FSprinkles. Passing clouds.6 mph87%30.24 "HgN/A
1:50 AM48 °FLight rain. Mostly cloudy.12 mph82%30.24 "HgN/A
1:20 AM48 °FLight rain. Mostly cloudy.14 mph82%30.21 "HgN/A
12:50 AM48 °FRain. Low clouds.14 mph87%30.21 "Hg4 mi
12:20 AM48 °FLight rain. Mostly cloudy.12 mph82%30.21 "HgN/A
11:50 PM
Dec 19
48 °FRain. Overcast.10 mph82%30.21 "HgN/A
11:20 PM48 °FLight rain. Mostly cloudy.12 mph82%30.21 "HgN/A
10:50 PM48 °FRain showers. Overcast.12 mph87%30.18 "HgN/A
10:20 PM48 °FSprinkles. Overcast.13 mph82%30.18 "HgN/A
9:50 PM48 °FRain. Mostly cloudy.15 mph87%30.18 "HgN/A
9:20 PM48 °FLight rain. Overcast.14 mph82%30.18 "HgN/A
8:50 PM48 °FLight rain. Overcast.13 mph82%30.15 "HgN/A
8:20 PM48 °FLight rain. Overcast.14 mph82%30.15 "HgN/A
7:50 PM50 °FLight rain. Overcast.15 mph71%30.12 "HgN/A
7:20 PM50 °FMostly cloudy.13 mph71%30.12 "HgN/A
6:50 PM50 °FMostly cloudy.7 mph71%30.12 "HgN/A
6:20 PM50 °FMostly cloudy.3 mph71%30.12 "HgN/A
5:50 PM48 °FOvercast.3 mph76%30.12 "HgN/A
5:20 PM50 °FClear.3 mph71%30.12 "Hg10 mi
4:50 PM50 °FClear.6 mph71%30.12 "Hg10 mi
4:20 PM52 °FSunny.7 mph67%30.12 "Hg10 mi
3:50 PM52 °FSunny.10 mph67%30.12 "Hg10 mi
3:20 PM52 °FSunny.8 mph67%30.12 "Hg10 mi
2:50 PM54 °FSunny.8 mph63%30.12 "Hg10 mi
2:20 PM54 °FSunny.9 mph67%30.12 "Hg10 mi
Weather by CustomWeather, © 2014

See weather overviewHow to use our weather pages